Location: Grand Rapids
(42.9630°N, 85.6680°W)
Time: 01:23:31
(UTC-04:00)

A-11 Canister half - Pass Details

Date: 03 June 2024
Orbit: 1524 x 1684 km, 47.3° (Epoch: 21 June)

Event Time Altitude Azimuth Distance (km) Brightness Sun altitude
Rises 02:57:24 0° 295° (WNW) 4,747 11.6 -22.3°
Reaches altitude 10° 03:00:48 10° 286° (WNW) 3,782 11.0 -22.1°
Maximum altitude 03:09:05 34° 226° (SW) 2,418 9.5 -21.6°
Enters shadow 03:10:59 32° 206° (SSW) 2,521 9.5 -21.4°
Drops below altitude 10° 03:17:36 10° 166° (SSE) 3,878 - -21.0°
Sets 03:21:09 0° 158° (SSE) 4,882 - -20.7°
